Regional Weather Roundup
Issued by NWS

Home | Current Version | Previous Version | Graphics & Text | Print | Product List | Glossary On
Versions: 1 2 3 4 5 6 7 8 9 10 11 12 13 14 15 16 17 18 19 20 21 22 23 24 25 26 27 28 29 30 31 32 33 34 35 36 37 38 39 40 41 42 43 44 45 46 47 48 49 50
000
ASUS43 KMKX 041300
RWRWI

WISCONSIN REGIONAL WEATHER ROUNDUP
NATIONAL WEATHER SERVICE MILWAUKEE/SULLIVAN WI
800 AM CDT FRI SEP 04 2015

NOTE: "FAIR" INDICATES FEW OR NO CLOUDS BELOW 12,000 FEET WITH NO
SIGNIFICANT WEATHER AND/OR OBSTRUCTIONS TO VISIBILITY.

WIZ001-002-006>008-014>016-023>028-041400-
NORTHWEST WISCONSIN

CITY           SKY/WX    TMP DP  RH WIND       PRES   REMARKS
SUPERIOR ARPT  CLOUDY    59  58  98 NE7       30.01R
ASHLAND        PTSUNNY   57  57 100 CALM      30.03S FOG
HAYWARD        PTSUNNY   68  62  81 SE8       30.02S
SIREN          MOSUNNY   69  65  85 SE12      29.97S
CUMBERLAND     CLOUDY    66  63  88 SE9       30.00S
RICE LAKE      CLOUDY    69  63  82 SE9       30.02R
CHETEK         CLOUDY    68  64  86 SE9       30.01S
LADYSMITH      MOSUNNY   64  62  93 E6        30.05S
EAU CLAIRE     PTSUNNY   70  64  81 SE7       30.00R
MENOMONIE      SUNNY     68  66  93 E8        30.00R
NEW RICHMOND   SUNNY     69  64  84 SE9       29.97R
OSCEOLA        SUNNY     70  66  86 SE8       29.99R
$$

WIZ003>005-009-010-017-018-041400-
NORTH CENTRAL WISCONSIN

CITY           SKY/WX    TMP DP  RH WIND       PRES   REMARKS
MANITOWISH WTR SUNNY     61  61 100 SE3       30.08R
ARBOR VITAE    SUNNY     62  61  97 CALM      30.08R
WOODRUFF       SUNNY     62  61  97 CALM      30.08R
RHINELANDER    SUNNY     61  60  97 E3        30.09S
EAGLE RIVER    SUNNY     59  59 100 CALM      30.08R
LAND O LAKES   SUNNY     58  58 100 CALM      30.10R
PHILLIPS       SUNNY     61  60  98 E5        30.05R
TOMAHAWK       FOG       55  55  97 CALM      30.07R VSB 1/4
MEDFORD        MOSUNNY   62  61  97 E6        30.06R
MERRILL        MOSUNNY   55  55 100 CALM      30.07R FOG
$$

WIZ029-030-035-036-043>047-041400-
CENTRAL WISCONSIN

CITY           SKY/WX    TMP DP  RH WIND       PRES   REMARKS
WAUSAU         SUNNY     64  62  93 E6        30.04S
MOSINEE        FOG       63  63 100 E5        30.06R VSB 1/4
MARSHFIELD     CLOUDY    64  61  90 E6        30.05R FOG
STEVENS POINT  FOG       61  61 100 NE7       30.05R VSB 1/2
WAUPACA        CLOUDY    66  65  97 CALM      30.04S FOG
WAUTOMA        CLOUDY    64  64 100 E3        30.05R FOG
WISC RAPIDS    FOG       64  62  93 E7        30.06R VSB 1
CAMP DOUGLAS   PTSUNNY   68  68 100 E5        30.02R
$$

WIZ011>013-019>022-031-037>040-048>050-041400-
NORTHEAST WISCONSIN

CITY           SKY/WX    TMP DP  RH WIND       PRES   REMARKS
ANTIGO         SUNNY     60  60 100 CALM      30.07R FOG
SHAWANO        NOT AVBL
OCONTO         SUNNY     64  64 100 CALM      30.03R
STURGEON BAY   SUNNY     66  63  88 NE5       30.05R
GREEN BAY      CLOUDY    67  64  90 NE8       30.04R FOG
MANITOWOC      NOT AVBL
APPLETON       CLOUDY    64  64 100 N6        30.02R
CLINTONVILLE   CLOUDY    63  61  94 CALM      30.04R
OSHKOSH        CLOUDY    69  64  84 CALM      30.02S
$$

WIZ032>034-041-042-053>061-041400-
SOUTHWEST WISCONSIN

CITY           SKY/WX    TMP DP  RH WIND       PRES   REMARKS
LA CROSSE      MOSUNNY   71  66  84 SE6       29.99R
SPARTA         CLOUDY    69  64  82 CALM      30.01S
VIROQUA          N/A     67  67 100 E6        30.02R
BOSCOBEL       SUNNY     70  67  90 NE5       30.00R
PRAIRIE DU CHI SUNNY     70  66  88 CALM      29.99R
PLATTEVILLE    SUNNY     69  68  97 E6        30.00S
$$

WIZ056-057-062-063-064-067-068-041400-
SOUTH CENTRAL WISCONSIN

CITY           SKY/WX    TMP DP  RH WIND       PRES   REMARKS
REEDSBURG      MOSUNNY   68  65  91 E5        30.01R
BARABOO/DELLS  CLOUDY    67  64  89 NE5       30.02S
LONE ROCK      NOT AVBL
MINERAL POINT  SUNNY     70  68  94 E3        30.02R FOG
MADISON        PTSUNNY   69  65  86 CALM      30.01R
MIDDLETON      SUNNY     70  68  95 NE3       30.02R
WATERTOWN      CLOUDY    64  64 100 NE7       30.01S FOG
MONROE         FOG       66  64  94 CALM      30.01R VSB 1
JANESVILLE     MOSUNNY   70  68  94 CALM      30.01R FOG
$$

WIZ051-052-058>065-066-070>072-041400-
SOUTHEAST WISCONSIN

CITY           SKY/WX    TMP DP  RH WIND       PRES   REMARKS
MILWAUKEE      CLOUDY    66  64  93 N3        30.02R FOG
WAUKESHA       CLOUDY    63  63 100 CALM      30.04R FOG
MILWAUKEE/TIMM CLOUDY    64  63  94 N5        30.02S FOG
RACINE         CLOUDY    66  64  93 N7        30.03R FOG
BURLINGTON     MOSUNNY   65  65  98 CALM      30.01R FOG
KENOSHA        PTSUNNY   66  64  93 E6        30.02R FOG
FOND DU LAC    CLOUDY    69  64  84 NE5       30.02S
SHEBOYGAN      CLOUDY    68  66  93 N6        30.01S
WEST BEND      CLOUDY    64  63  94 CALM      30.02R
JUNEAU         CLOUDY    64  64  99 NE7       30.04R FOG
$$

LSZ147-162-041400-
LAKE SUPERIOR

STATION/POSITION TIME  TEMP    WIND        PRES    WAVE
                       AIR SEA DIR/SP/G            HT/PER
                 (UTC) (F)     (DEG/KT/KT) (MB)    (FT/S)
W MID LAKE BUOY  1150   59 56   90/  8/  8 1016.9R   0
DEVILS ISLAND    1200   61      90/  6/  7 1016.8R
PORT WING        1240   56      CALM  /  3 1016.6R
SAXON HARBOR     1200   54        CALM     1015.9
$$

LMZ867-665-643>646-041400-
LAKE MICHIGAN

STATION/POSITION TIME  TEMP    WIND        PRES    WAVE
                       AIR SEA DIR/SP/G            HT/PER
                 (UTC) (F)     (DEG/KT/KT) (MB)    (FT/S)
CHAMBERS ISLAND  1200   65      20/  8/  9 1016.6R
S GREEN BAY BUOY 1200   65 66   10/  8/ 10 1017.9
N MID LAKE BUOY  1150   68 66   60/ 14/ 16 1015.6S   1/ 3
NORTHPORT PIER   1200   68      50/ 11/ 16 1016.3S
SISTER BAY       1111   66      50/  3/  6   N/A
ALGOMA LAKESHORE 1244          310/  5/  6   N/A
KEWAUNEE LAKESHO 1200   66      10/  5/ 10 1015.4R
SHEBOYGAN LAKESH 1200   64     340/  9/ 11 1016.2R
PORT WASHINGTON  1200   68     320/  3/  5 1016.6R
ATWATER BUOY     1200   61     270/  4/  6 1017.3R
MILWAUKEE LAKESH 1210   65     350/  8/  9   N/A
S MID LAKE BUOY  1150   66 71  320/  8/ 10 1015.1R   2/ 4
KENOSHA   LAKESH 1200   62      30/ 13/ 13 1015.9R
$$

TC  - TEMPERATURE IN CELSIUS
VSB - VISIBILITY IN STATUTE MILES
WCI - WIND CHILL INDEX
HX  - HEAT INDEX



USA.gov is the U.S. government's official web portal to all federal, state and local government web resources and services.